Year,Month,Day,Hour,Minute,Value (Times are PST for temperature in C)
2015,08,25,00,00,15.20
2015,08,25,00,01,15.20
2015,08,25,00,02,15.20
2015,08,25,00,03,15.10
2015,08,25,00,04,15.10
2015,08,25,00,05,15.10
2015,08,25,00,06,15.10
2015,08,25,00,07,15.10
2015,08,25,00,08,15.00
2015,08,25,00,09,15.00
2015,08,25,00,10,15.00
2015,08,25,00,11,15.00
2015,08,25,00,12,14.90
2015,08,25,00,13,14.90
2015,08,25,00,14,14.90
2015,08,25,00,15,14.80
2015,08,25,00,16,14.80
2015,08,25,00,17,14.80
2015,08,25,00,18,14.80
2015,08,25,00,19,14.80
2015,08,25,00,20,14.70
2015,08,25,00,21,14.70
2015,08,25,00,22,14.70
2015,08,25,00,23,14.70
2015,08,25,00,24,14.70
2015,08,25,00,25,14.70
2015,08,25,00,26,14.70
2015,08,25,00,27,14.60
2015,08,25,00,28,14.60
2015,08,25,00,29,14.60
2015,08,25,00,30,14.60
2015,08,25,00,31,14.60
2015,08,25,00,32,14.60
2015,08,25,00,33,14.60
2015,08,25,00,34,14.50
2015,08,25,00,35,14.50
2015,08,25,00,36,14.50
2015,08,25,00,37,14.50
2015,08,25,00,38,14.40
2015,08,25,00,39,14.40
2015,08,25,00,40,14.40
2015,08,25,00,41,14.40
2015,08,25,00,42,14.40
2015,08,25,00,43,14.30
2015,08,25,00,44,14.30
2015,08,25,00,45,14.30
2015,08,25,00,46,14.30
2015,08,25,00,47,14.30
2015,08,25,00,48,14.30
2015,08,25,00,49,14.30
2015,08,25,00,50,14.30
2015,08,25,00,51,14.30
2015,08,25,00,52,14.30
2015,08,25,00,53,14.40
2015,08,25,00,54,14.40
2015,08,25,00,55,14.40
2015,08,25,00,56,14.40
2015,08,25,00,57,14.40
2015,08,25,00,58,14.40
2015,08,25,00,59,14.40
2015,08,25,01,00,14.40
2015,08,25,01,01,14.40
2015,08,25,01,02,14.40
2015,08,25,01,03,14.40
2015,08,25,01,04,14.40
2015,08,25,01,05,14.40
2015,08,25,01,06,14.40
2015,08,25,01,07,14.40
2015,08,25,01,08,14.40
2015,08,25,01,09,14.30
2015,08,25,01,10,14.30
2015,08,25,01,11,14.30
2015,08,25,01,12,14.30
2015,08,25,01,13,14.30
2015,08,25,01,14,14.30
2015,08,25,01,15,14.30
2015,08,25,01,16,14.20
2015,08,25,01,17,14.20
2015,08,25,01,18,14.20
2015,08,25,01,19,14.20
2015,08,25,01,20,14.20
2015,08,25,01,21,14.20
2015,08,25,01,22,14.20
2015,08,25,01,23,14.20
2015,08,25,01,24,14.20
2015,08,25,01,25,14.20
2015,08,25,01,26,14.20
2015,08,25,01,27,14.20
2015,08,25,01,28,14.20
2015,08,25,01,29,14.20
2015,08,25,01,30,14.20
2015,08,25,01,31,14.20
2015,08,25,01,32,14.20
2015,08,25,01,33,14.20
2015,08,25,01,34,14.20
2015,08,25,01,35,14.20
2015,08,25,01,36,14.20
2015,08,25,01,37,14.20
2015,08,25,01,38,14.10
2015,08,25,01,39,14.10
2015,08,25,01,40,14.10
2015,08,25,01,41,14.10
2015,08,25,01,42,14.10
2015,08,25,01,43,14.10
2015,08,25,01,44,14.00
2015,08,25,01,45,14.00
2015,08,25,01,46,14.00
2015,08,25,01,47,14.00
2015,08,25,01,48,14.00
2015,08,25,01,49,14.00
2015,08,25,01,50,13.90
2015,08,25,01,51,13.90
2015,08,25,01,52,13.90
2015,08,25,01,53,13.90
2015,08,25,01,54,13.90
2015,08,25,01,55,13.90
2015,08,25,01,56,13.80
2015,08,25,01,57,13.80
2015,08,25,01,58,13.80
2015,08,25,01,59,13.80
2015,08,25,02,00,13.80
2015,08,25,02,01,13.80
2015,08,25,02,02,13.80
2015,08,25,02,03,13.80
2015,08,25,02,04,13.80
2015,08,25,02,05,13.80
2015,08,25,02,06,13.80
2015,08,25,02,07,13.70
2015,08,25,02,08,13.70
2015,08,25,02,09,13.70
2015,08,25,02,10,13.70
2015,08,25,02,11,13.70
2015,08,25,02,12,13.70
2015,08,25,02,13,13.70
2015,08,25,02,14,13.70
2015,08,25,02,15,13.70
2015,08,25,02,16,13.70
2015,08,25,02,17,13.70
2015,08,25,02,18,13.70
2015,08,25,02,19,13.70
2015,08,25,02,20,13.60
2015,08,25,02,21,13.60
2015,08,25,02,22,13.60
2015,08,25,02,23,13.60
2015,08,25,02,24,13.60
2015,08,25,02,25,13.60
2015,08,25,02,26,13.50
2015,08,25,02,27,13.50
2015,08,25,02,28,13.50
2015,08,25,02,29,13.50
2015,08,25,02,30,13.50
2015,08,25,02,31,13.50
2015,08,25,02,32,13.40
2015,08,25,02,33,13.40
2015,08,25,02,34,13.40
2015,08,25,02,35,13.40
2015,08,25,02,36,13.30
2015,08,25,02,37,13.30
2015,08,25,02,38,13.30
2015,08,25,02,39,13.30
2015,08,25,02,40,13.30
2015,08,25,02,41,13.20
2015,08,25,02,42,13.20
2015,08,25,02,43,13.20
2015,08,25,02,44,13.10
2015,08,25,02,45,13.10
2015,08,25,02,46,13.10
2015,08,25,02,47,13.00
2015,08,25,02,48,13.00
2015,08,25,02,49,13.00
2015,08,25,02,50,12.90
2015,08,25,02,51,12.90
2015,08,25,02,52,12.80
2015,08,25,02,53,12.80
2015,08,25,02,54,12.80
2015,08,25,02,55,12.70
2015,08,25,02,56,12.70
2015,08,25,02,57,12.60
2015,08,25,02,58,12.60
2015,08,25,02,59,12.60
2015,08,25,03,00,12.50
2015,08,25,03,01,12.50
2015,08,25,03,02,12.50
2015,08,25,03,03,12.50
2015,08,25,03,04,12.50
2015,08,25,03,05,12.50
2015,08,25,03,06,12.50
2015,08,25,03,07,12.50
2015,08,25,03,08,12.50
2015,08,25,03,09,12.50
2015,08,25,03,10,12.50
2015,08,25,03,11,12.50
2015,08,25,03,12,12.50
2015,08,25,03,13,12.40
2015,08,25,03,14,12.40
2015,08,25,03,15,12.40
2015,08,25,03,16,12.40
2015,08,25,03,17,12.40
2015,08,25,03,18,12.40
2015,08,25,03,19,12.40
2015,08,25,03,20,12.40
2015,08,25,03,21,12.30
2015,08,25,03,22,12.30
2015,08,25,03,23,12.30
2015,08,25,03,24,12.30
2015,08,25,03,25,12.30
2015,08,25,03,26,12.30
2015,08,25,03,27,12.30
2015,08,25,03,28,12.30
2015,08,25,03,29,12.30
2015,08,25,03,30,12.30
2015,08,25,03,31,12.30
2015,08,25,03,32,12.30
2015,08,25,03,33,12.30
2015,08,25,03,34,12.20
2015,08,25,03,35,12.20
2015,08,25,03,36,12.10
2015,08,25,03,37,12.10
2015,08,25,03,38,12.00
2015,08,25,03,39,12.00
2015,08,25,03,40,12.00
2015,08,25,03,41,11.90
2015,08,25,03,42,11.90
2015,08,25,03,43,11.90
2015,08,25,03,44,11.90
2015,08,25,03,45,11.80
2015,08,25,03,46,11.80
2015,08,25,03,47,11.80
2015,08,25,03,48,11.80
2015,08,25,03,49,11.80
2015,08,25,03,50,11.70
2015,08,25,03,51,11.70
2015,08,25,03,52,11.70
2015,08,25,03,53,11.70
2015,08,25,03,54,11.70
2015,08,25,03,55,11.70
2015,08,25,03,56,11.70
2015,08,25,03,57,11.70
2015,08,25,03,58,11.70
2015,08,25,03,59,11.70
2015,08,25,04,00,11.70
2015,08,25,04,01,11.70
2015,08,25,04,02,11.70
2015,08,25,04,03,11.70
2015,08,25,04,04,11.70
2015,08,25,04,05,11.70
2015,08,25,04,06,11.70
2015,08,25,04,07,11.70
2015,08,25,04,08,11.70
2015,08,25,04,09,11.70
2015,08,25,04,10,11.60
2015,08,25,04,11,11.60
2015,08,25,04,12,11.60
2015,08,25,04,13,11.60
2015,08,25,04,14,11.60
2015,08,25,04,15,11.60
2015,08,25,04,16,11.60
2015,08,25,04,17,11.60
2015,08,25,04,18,11.60
2015,08,25,04,19,11.60
2015,08,25,04,20,11.60
2015,08,25,04,21,11.60
2015,08,25,04,22,11.60
2015,08,25,04,23,11.60
2015,08,25,04,24,11.50
2015,08,25,04,25,11.40
2015,08,25,04,26,11.40
2015,08,25,04,27,11.40
2015,08,25,04,28,11.40
2015,08,25,04,29,11.40
2015,08,25,04,30,11.40
2015,08,25,04,31,11.40
2015,08,25,04,32,11.40
2015,08,25,04,33,11.40
2015,08,25,04,34,11.40
2015,08,25,04,35,11.40
2015,08,25,04,36,11.40
2015,08,25,04,37,11.40
2015,08,25,04,38,11.40
2015,08,25,04,39,11.30
2015,08,25,04,40,11.30
2015,08,25,04,41,11.30
2015,08,25,04,42,11.20
2015,08,25,04,43,11.20
2015,08,25,04,44,11.20
2015,08,25,04,45,11.20
2015,08,25,04,46,11.30
2015,08,25,04,47,11.30
2015,08,25,04,48,11.30
2015,08,25,04,49,11.20
2015,08,25,04,50,11.20
2015,08,25,04,51,11.20
2015,08,25,04,52,11.10
2015,08,25,04,53,11.10
2015,08,25,04,54,11.20
2015,08,25,04,55,11.20
2015,08,25,04,56,11.20
2015,08,25,04,57,11.20
2015,08,25,04,58,11.10
2015,08,25,04,59,11.10
2015,08,25,05,00,11.10
2015,08,25,05,01,11.10
2015,08,25,05,02,11.10
2015,08,25,05,03,11.10
2015,08,25,05,04,11.10
2015,08,25,05,05,11.10
2015,08,25,05,06,11.10
2015,08,25,05,07,11.10
2015,08,25,05,08,11.20
2015,08,25,05,09,11.20
2015,08,25,05,10,11.20
2015,08,25,05,11,11.20
2015,08,25,05,12,11.20
2015,08,25,05,13,11.20
2015,08,25,05,14,11.20
2015,08,25,05,15,11.20
2015,08,25,05,16,11.20
2015,08,25,05,17,11.20
2015,08,25,05,18,11.20
2015,08,25,05,19,11.20
2015,08,25,05,20,11.20
2015,08,25,05,21,11.10
2015,08,25,05,22,11.10
2015,08,25,05,23,11.10
2015,08,25,05,24,11.10
2015,08,25,05,25,11.10
2015,08,25,05,26,11.10
2015,08,25,05,27,11.10
2015,08,25,05,28,11.10
2015,08,25,05,29,11.10
2015,08,25,05,30,11.10
2015,08,25,05,31,11.10
2015,08,25,05,32,11.10
2015,08,25,05,33,11.10
2015,08,25,05,34,11.10
2015,08,25,05,35,11.10
2015,08,25,05,36,11.10
2015,08,25,05,37,11.00
2015,08,25,05,38,10.90
2015,08,25,05,39,10.90
2015,08,25,05,40,10.90
2015,08,25,05,41,10.90
2015,08,25,05,42,10.90
2015,08,25,05,43,10.90
2015,08,25,05,44,10.90
2015,08,25,05,45,10.90
2015,08,25,05,46,10.90
2015,08,25,05,47,11.00
2015,08,25,05,48,11.10
2015,08,25,05,49,11.10
2015,08,25,05,50,11.10
2015,08,25,05,51,11.10
2015,08,25,05,52,11.10
2015,08,25,05,53,11.10
2015,08,25,05,54,11.10
2015,08,25,05,55,11.10
2015,08,25,05,56,11.10
2015,08,25,05,57,11.10
2015,08,25,05,58,10.90
2015,08,25,05,59,10.90
2015,08,25,06,00,10.90
2015,08,25,06,01,10.90
2015,08,25,06,02,10.90
2015,08,25,06,03,10.90
2015,08,25,06,04,10.90
2015,08,25,06,05,10.90
2015,08,25,06,06,10.80
2015,08,25,06,07,10.80
2015,08,25,06,08,10.80
2015,08,25,06,09,10.80
2015,08,25,06,10,10.80
2015,08,25,06,11,10.80
2015,08,25,06,12,10.80
2015,08,25,06,13,10.80
2015,08,25,06,14,10.80
2015,08,25,06,15,10.80
2015,08,25,06,16,10.80
2015,08,25,06,17,10.80
2015,08,25,06,18,10.80
2015,08,25,06,19,10.80
2015,08,25,06,20,10.80
2015,08,25,06,21,10.80
2015,08,25,06,22,10.80
2015,08,25,06,23,10.80
2015,08,25,06,24,10.70
2015,08,25,06,25,10.70
2015,08,25,06,26,10.70
2015,08,25,06,27,10.70
2015,08,25,06,28,10.70
2015,08,25,06,29,10.70
2015,08,25,06,30,10.70
2015,08,25,06,31,10.60
2015,08,25,06,32,10.60
2015,08,25,06,33,10.60
2015,08,25,06,34,10.60
2015,08,25,06,35,10.60
2015,08,25,06,36,10.60
2015,08,25,06,37,10.60
2015,08,25,06,38,10.60
2015,08,25,06,39,10.60
2015,08,25,06,40,10.60
2015,08,25,06,41,10.60
2015,08,25,06,42,10.60
2015,08,25,06,43,10.60
2015,08,25,06,44,10.60
2015,08,25,06,45,10.60
2015,08,25,06,46,10.60
2015,08,25,06,47,10.60
2015,08,25,06,48,10.60
2015,08,25,06,49,10.60
2015,08,25,06,50,10.60
2015,08,25,06,51,10.60
2015,08,25,06,52,10.60
2015,08,25,06,53,10.60
2015,08,25,06,54,10.70
2015,08,25,06,55,10.70
2015,08,25,06,56,10.70
2015,08,25,06,57,10.80
2015,08,25,06,58,10.80
2015,08,25,06,59,10.90
2015,08,25,07,00,10.90
2015,08,25,07,01,10.90
2015,08,25,07,02,10.90
2015,08,25,07,03,11.00
2015,08,25,07,04,11.10
2015,08,25,07,05,11.10
2015,08,25,07,06,11.20
2015,08,25,07,07,11.20
2015,08,25,07,08,11.30
2015,08,25,07,09,11.30
2015,08,25,07,10,11.40
2015,08,25,07,11,11.40
2015,08,25,07,12,11.40
2015,08,25,07,13,11.50
2015,08,25,07,14,11.60
2015,08,25,07,15,11.60
2015,08,25,07,16,11.70
2015,08,25,07,17,11.80
2015,08,25,07,18,11.80
2015,08,25,07,19,11.80
2015,08,25,07,20,11.90
2015,08,25,07,21,12.00
2015,08,25,07,22,12.00
2015,08,25,07,23,12.00
2015,08,25,07,24,12.00
2015,08,25,07,25,12.00
2015,08,25,07,26,12.00
2015,08,25,07,27,12.00
2015,08,25,07,28,12.00
2015,08,25,07,29,12.10
2015,08,25,07,30,12.20
2015,08,25,07,31,12.30
2015,08,25,07,32,12.30
2015,08,25,07,33,12.40
2015,08,25,07,34,12.50
2015,08,25,07,35,12.50
2015,08,25,07,36,12.60
2015,08,25,07,37,12.70
2015,08,25,07,38,12.80
2015,08,25,07,39,12.80
2015,08,25,07,40,12.80
2015,08,25,07,41,12.90
2015,08,25,07,42,13.00
2015,08,25,07,43,13.10
2015,08,25,07,44,13.20
2015,08,25,07,45,13.30
2015,08,25,07,46,13.40
2015,08,25,07,47,13.60
2015,08,25,07,48,13.70
2015,08,25,07,49,13.80
2015,08,25,07,50,13.90
2015,08,25,07,51,14.00
2015,08,25,07,52,14.20
2015,08,25,07,53,14.30
2015,08,25,07,54,14.40
2015,08,25,07,55,14.50
2015,08,25,07,56,14.60
2015,08,25,07,57,14.70
2015,08,25,07,58,14.80
2015,08,25,07,59,14.80
2015,08,25,08,00,14.80
2015,08,25,08,01,14.80
2015,08,25,08,02,14.80
2015,08,25,08,03,14.80
2015,08,25,08,04,14.80
2015,08,25,08,05,14.80
2015,08,25,08,06,14.90
2015,08,25,08,07,15.00
2015,08,25,08,08,15.00
2015,08,25,08,09,15.10
2015,08,25,08,10,15.20
2015,08,25,08,11,15.20
2015,08,25,08,12,15.30
2015,08,25,08,13,15.40
2015,08,25,08,14,15.40
2015,08,25,08,15,15.40
2015,08,25,08,16,15.40
2015,08,25,08,17,15.40
2015,08,25,08,18,15.30
2015,08,25,08,19,15.30
2015,08,25,08,20,15.30
2015,08,25,08,21,15.30
2015,08,25,08,22,15.40
2015,08,25,08,23,15.40
2015,08,25,08,24,15.40
2015,08,25,08,25,15.40
2015,08,25,08,26,15.40
2015,08,25,08,27,15.40
2015,08,25,08,28,15.40
2015,08,25,08,29,15.40
2015,08,25,08,30,15.30
2015,08,25,08,31,15.30
2015,08,25,08,32,15.30
2015,08,25,08,33,15.30
2015,08,25,08,34,15.30
2015,08,25,08,35,15.30
2015,08,25,08,36,15.30
2015,08,25,08,37,15.30
2015,08,25,08,38,15.30
2015,08,25,08,39,15.30
2015,08,25,08,40,15.40
2015,08,25,08,41,15.40
2015,08,25,08,42,15.40
2015,08,25,08,43,15.40
2015,08,25,08,44,15.50
2015,08,25,08,45,15.50
2015,08,25,08,46,15.50
2015,08,25,08,47,15.50
2015,08,25,08,48,15.50
2015,08,25,08,49,15.50
2015,08,25,08,50,15.40
2015,08,25,08,51,15.30
2015,08,25,08,52,15.30
2015,08,25,08,53,15.30
2015,08,25,08,54,15.30
2015,08,25,08,55,15.40
2015,08,25,08,56,15.40
2015,08,25,08,57,15.30
2015,08,25,08,58,15.30
2015,08,25,08,59,15.30
2015,08,25,09,00,15.30
2015,08,25,09,01,15.30
2015,08,25,09,02,15.30
2015,08,25,09,03,15.30
2015,08,25,09,04,15.30
2015,08,25,09,05,15.30
2015,08,25,09,06,15.40
2015,08,25,09,07,15.40
2015,08,25,09,08,15.30
2015,08,25,09,09,15.30
2015,08,25,09,10,15.30
2015,08,25,09,11,15.30
2015,08,25,09,12,15.40
2015,08,25,09,13,15.40
2015,08,25,09,14,15.40
2015,08,25,09,15,15.50
2015,08,25,09,16,15.60
2015,08,25,09,17,15.60
2015,08,25,09,18,15.60
2015,08,25,09,19,15.70
2015,08,25,09,20,15.80
2015,08,25,09,21,15.70
2015,08,25,09,22,15.70
2015,08,25,09,23,15.80
2015,08,25,09,24,15.80
2015,08,25,09,25,15.80
2015,08,25,09,26,15.80
2015,08,25,09,27,15.80
2015,08,25,09,28,15.80
2015,08,25,09,29,15.90
2015,08,25,09,30,15.90
2015,08,25,09,31,16.00
2015,08,25,09,32,16.10
2015,08,25,09,33,16.10
2015,08,25,09,34,16.10
2015,08,25,09,35,16.10
2015,08,25,09,36,16.10
2015,08,25,09,37,16.10
2015,08,25,09,38,16.10
2015,08,25,09,39,16.10
2015,08,25,09,40,16.10
2015,08,25,09,41,16.10
2015,08,25,09,42,16.20
2015,08,25,09,43,16.30
2015,08,25,09,44,16.40
2015,08,25,09,45,16.40
2015,08,25,09,46,16.50
2015,08,25,09,47,16.60
2015,08,25,09,48,16.70
2015,08,25,09,49,16.70
2015,08,25,09,50,16.80
2015,08,25,09,51,16.90
2015,08,25,09,52,17.00
2015,08,25,09,53,17.30
2015,08,25,09,54,17.40
2015,08,25,09,55,17.50
2015,08,25,09,56,17.50
2015,08,25,09,57,17.50
2015,08,25,09,58,17.40
2015,08,25,09,59,17.50
2015,08,25,10,00,17.50
2015,08,25,10,01,17.50
2015,08,25,10,02,17.60
2015,08,25,10,03,17.70
2015,08,25,10,04,17.70
2015,08,25,10,05,17.80
2015,08,25,10,06,17.90
2015,08,25,10,07,18.10
2015,08,25,10,08,18.20
2015,08,25,10,09,18.20
2015,08,25,10,10,18.20
2015,08,25,10,11,18.20
2015,08,25,10,12,18.20
2015,08,25,10,13,18.20
2015,08,25,10,14,18.30
2015,08,25,10,15,18.40
2015,08,25,10,16,18.50
2015,08,25,10,17,18.60
2015,08,25,10,18,18.70
2015,08,25,10,19,18.80
2015,08,25,10,20,18.90
2015,08,25,10,21,18.90
2015,08,25,10,22,18.90
2015,08,25,10,23,18.90
2015,08,25,10,24,18.90
2015,08,25,10,25,18.90
2015,08,25,10,26,18.90
2015,08,25,10,27,18.90
2015,08,25,10,28,18.90
2015,08,25,10,29,18.90
2015,08,25,10,30,18.90
2015,08,25,10,31,18.90
2015,08,25,10,32,18.90
2015,08,25,10,33,18.90
2015,08,25,10,34,18.80
2015,08,25,10,35,18.60
2015,08,25,10,36,18.50
2015,08,25,10,37,18.30
2015,08,25,10,38,18.30
2015,08,25,10,39,18.20
2015,08,25,10,40,18.20
2015,08,25,10,41,18.10
2015,08,25,10,42,17.90
2015,08,25,10,43,17.90
2015,08,25,10,44,17.80
2015,08,25,10,45,17.80
2015,08,25,10,46,17.80
2015,08,25,10,47,17.80
2015,08,25,10,48,17.80
2015,08,25,10,49,17.90
2015,08,25,10,50,17.90
2015,08,25,10,51,17.90
2015,08,25,10,52,17.80
2015,08,25,10,53,17.70
2015,08,25,10,54,17.50
2015,08,25,10,55,17.40
2015,08,25,10,56,17.50
2015,08,25,10,57,17.50
2015,08,25,10,58,17.40
2015,08,25,10,59,17.40
2015,08,25,11,00,17.30
2015,08,25,11,01,17.30
2015,08,25,11,02,17.40
2015,08,25,11,03,17.50
2015,08,25,11,04,17.50
2015,08,25,11,05,17.60
2015,08,25,11,06,17.70
2015,08,25,11,07,17.80
2015,08,25,11,08,17.90
2015,08,25,11,09,18.00
2015,08,25,11,10,18.10
2015,08,25,11,11,18.10
2015,08,25,11,12,18.10
2015,08,25,11,13,18.20
2015,08,25,11,14,18.30
2015,08,25,11,15,18.40
2015,08,25,11,16,18.40
2015,08,25,11,17,18.40
2015,08,25,11,18,18.50
2015,08,25,11,19,18.60
2015,08,25,11,20,18.70
2015,08,25,11,21,18.90
2015,08,25,11,22,18.90
2015,08,25,11,23,19.10
2015,08,25,11,24,19.10
2015,08,25,11,25,19.20
2015,08,25,11,26,19.20
2015,08,25,11,27,19.10
2015,08,25,11,28,18.90
2015,08,25,11,29,18.90
2015,08,25,11,30,18.80
2015,08,25,11,31,18.80
2015,08,25,11,32,18.70
2015,08,25,11,33,18.60
2015,08,25,11,34,18.50
2015,08,25,11,35,18.30
2015,08,25,11,36,18.30
2015,08,25,11,37,18.30
2015,08,25,11,38,18.40
2015,08,25,11,39,18.50
2015,08,25,11,40,18.60
2015,08,25,11,41,18.60
2015,08,25,11,42,18.70
2015,08,25,11,43,18.60
2015,08,25,11,44,18.60
2015,08,25,11,45,18.60
2015,08,25,11,46,18.70
2015,08,25,11,47,18.70
2015,08,25,11,48,18.70
2015,08,25,11,49,18.70
2015,08,25,11,50,18.70
2015,08,25,11,51,18.60
2015,08,25,11,52,18.50
2015,08,25,11,53,18.50
2015,08,25,11,54,18.50
2015,08,25,11,55,18.60
2015,08,25,11,56,18.60
2015,08,25,11,57,18.70
2015,08,25,11,58,18.70
2015,08,25,11,59,18.70
2015,08,25,12,00,18.60
2015,08,25,12,01,18.50
2015,08,25,12,02,18.50
2015,08,25,12,03,18.50
2015,08,25,12,04,18.60
2015,08,25,12,05,18.60
2015,08,25,12,06,18.70
2015,08,25,12,07,18.80
2015,08,25,12,08,18.90
2015,08,25,12,09,18.90
2015,08,25,12,10,18.90
2015,08,25,12,11,19.10
2015,08,25,12,12,19.10
2015,08,25,12,13,19.10
2015,08,25,12,14,19.10
2015,08,25,12,15,19.10
2015,08,25,12,16,19.10
2015,08,25,12,17,19.10
2015,08,25,12,18,19.10
2015,08,25,12,19,19.10
2015,08,25,12,20,19.10
2015,08,25,12,21,19.10
2015,08,25,12,22,19.10
2015,08,25,12,23,19.10
2015,08,25,12,24,19.10
2015,08,25,12,25,19.10
2015,08,25,12,26,19.10
2015,08,25,12,27,19.20
2015,08,25,12,28,19.30
2015,08,25,12,29,19.40
2015,08,25,12,30,19.40
2015,08,25,12,31,19.50
2015,08,25,12,32,19.50
2015,08,25,12,33,19.50
2015,08,25,12,34,19.50
2015,08,25,12,35,19.50
2015,08,25,12,36,19.40
2015,08,25,12,37,19.40
2015,08,25,12,38,19.50
2015,08,25,12,39,19.50
2015,08,25,12,40,19.40
2015,08,25,12,41,19.30
2015,08,25,12,42,19.40
2015,08,25,12,43,19.60
2015,08,25,12,44,19.60
2015,08,25,12,45,19.60
2015,08,25,12,46,19.70
2015,08,25,12,47,19.90
2015,08,25,12,48,19.80
2015,08,25,12,49,19.70
2015,08,25,12,50,19.60
2015,08,25,12,51,19.50
2015,08,25,12,52,19.30
2015,08,25,12,53,19.20
2015,08,25,12,54,19.10
2015,08,25,12,55,19.10
2015,08,25,12,56,19.10
2015,08,25,12,57,19.10
2015,08,25,12,58,19.10
2015,08,25,12,59,19.10
2015,08,25,13,00,19.10
2015,08,25,13,01,19.20
2015,08,25,13,02,19.30
2015,08,25,13,03,19.40
2015,08,25,13,04,19.40
2015,08,25,13,05,19.40
2015,08,25,13,06,19.40
2015,08,25,13,07,19.40
2015,08,25,13,08,19.30
2015,08,25,13,09,19.20
2015,08,25,13,10,19.10
2015,08,25,13,11,19.10
2015,08,25,13,12,19.10
2015,08,25,13,13,19.20
2015,08,25,13,14,19.20
2015,08,25,13,15,19.20
2015,08,25,13,16,19.20
2015,08,25,13,17,19.30
2015,08,25,13,18,19.40
2015,08,25,13,19,19.50
2015,08,25,13,20,19.60
2015,08,25,13,21,19.60
2015,08,25,13,22,19.70
2015,08,25,13,23,19.80
2015,08,25,13,24,19.70
2015,08,25,13,25,19.60
2015,08,25,13,26,19.60
2015,08,25,13,27,19.70
2015,08,25,13,28,19.80
2015,08,25,13,29,19.90
2015,08,25,13,30,19.90
2015,08,25,13,31,19.90
2015,08,25,13,32,19.80
2015,08,25,13,33,19.80
2015,08,25,13,34,19.80
2015,08,25,13,35,19.80
2015,08,25,13,36,19.80
2015,08,25,13,37,19.80
2015,08,25,13,38,19.80
2015,08,25,13,39,19.80
2015,08,25,13,40,19.80
2015,08,25,13,41,19.80
2015,08,25,13,42,19.80
2015,08,25,13,43,19.80
2015,08,25,13,44,19.80
2015,08,25,13,45,19.90
2015,08,25,13,46,19.90
2015,08,25,13,47,19.90
2015,08,25,13,48,19.90
2015,08,25,13,49,19.90
2015,08,25,13,50,20.00
2015,08,25,13,51,20.10
2015,08,25,13,52,20.20
2015,08,25,13,53,20.20
2015,08,25,13,54,20.30
2015,08,25,13,55,20.20
2015,08,25,13,56,20.20
2015,08,25,13,57,20.20
2015,08,25,13,58,20.30
2015,08,25,13,59,20.30
2015,08,25,14,00,20.30
2015,08,25,14,01,20.30
2015,08,25,14,02,20.30
2015,08,25,14,03,20.30
2015,08,25,14,04,20.30
2015,08,25,14,05,20.40
2015,08,25,14,06,20.60
2015,08,25,14,07,20.70
2015,08,25,14,08,20.90
2015,08,25,14,09,21.00
2015,08,25,14,10,21.10
2015,08,25,14,11,21.10
2015,08,25,14,12,21.10
2015,08,25,14,13,21.10
2015,08,25,14,14,21.10
2015,08,25,14,15,21.00
2015,08,25,14,16,21.10
2015,08,25,14,17,21.20
2015,08,25,14,18,21.00
2015,08,25,14,19,21.00
2015,08,25,14,20,21.00
2015,08,25,14,21,21.10
2015,08,25,14,22,21.20
2015,08,25,14,23,21.30
2015,08,25,14,24,21.50
2015,08,25,14,25,21.60
2015,08,25,14,26,21.70
2015,08,25,14,27,21.80
2015,08,25,14,28,21.80
2015,08,25,14,29,21.70
2015,08,25,14,30,21.50
2015,08,25,14,31,21.40
2015,08,25,14,32,21.30
2015,08,25,14,33,21.50
2015,08,25,14,34,21.60
2015,08,25,14,35,21.70
2015,08,25,14,36,21.90
2015,08,25,14,37,21.90
2015,08,25,14,38,21.90
2015,08,25,14,39,22.00
2015,08,25,14,40,22.00
2015,08,25,14,41,22.10
2015,08,25,14,42,22.20
2015,08,25,14,43,22.30
2015,08,25,14,44,22.40
2015,08,25,14,45,22.50
2015,08,25,14,46,22.40
2015,08,25,14,47,22.20
2015,08,25,14,48,22.10
2015,08,25,14,49,22.00
2015,08,25,14,50,21.90
2015,08,25,14,51,22.00
2015,08,25,14,52,22.20
2015,08,25,14,53,22.40
2015,08,25,14,54,22.20
2015,08,25,14,55,22.10
2015,08,25,14,56,22.00
2015,08,25,14,57,22.00
2015,08,25,14,58,22.10
2015,08,25,14,59,22.20
2015,08,25,15,00,22.40
2015,08,25,15,01,22.60
2015,08,25,15,02,22.70
2015,08,25,15,03,22.90
2015,08,25,15,04,22.90
2015,08,25,15,05,22.90
2015,08,25,15,06,22.90
2015,08,25,15,07,22.90
2015,08,25,15,08,22.90
2015,08,25,15,09,22.90
2015,08,25,15,10,22.80
2015,08,25,15,11,22.60
2015,08,25,15,12,22.50
2015,08,25,15,13,22.50
2015,08,25,15,14,22.30
2015,08,25,15,15,22.00
2015,08,25,15,16,22.00
2015,08,25,15,17,22.00
2015,08,25,15,18,21.90
2015,08,25,15,19,21.90
2015,08,25,15,20,22.00
2015,08,25,15,21,22.00
2015,08,25,15,22,22.20
2015,08,25,15,23,22.20
2015,08,25,15,24,22.30
2015,08,25,15,25,22.40
2015,08,25,15,26,22.50
2015,08,25,15,27,22.50
2015,08,25,15,28,22.60
2015,08,25,15,29,22.60
2015,08,25,15,30,22.70
2015,08,25,15,31,22.90
2015,08,25,15,32,22.90
2015,08,25,15,33,22.90
2015,08,25,15,34,23.00
2015,08,25,15,35,23.10
2015,08,25,15,36,22.90
2015,08,25,15,37,22.80
2015,08,25,15,38,22.80
2015,08,25,15,39,22.80
2015,08,25,15,40,22.80
2015,08,25,15,41,22.90
2015,08,25,15,42,22.90
2015,08,25,15,43,22.90
2015,08,25,15,44,22.90
2015,08,25,15,45,22.90
2015,08,25,15,46,22.90
2015,08,25,15,47,22.90
2015,08,25,15,48,22.90
2015,08,25,15,49,22.90
2015,08,25,15,50,22.80
2015,08,25,15,51,22.90
2015,08,25,15,52,22.90
2015,08,25,15,53,23.10
2015,08,25,15,54,23.20
2015,08,25,15,55,23.20
2015,08,25,15,56,23.20
2015,08,25,15,57,23.20
2015,08,25,15,58,23.30
2015,08,25,15,59,23.30
2015,08,25,16,00,23.30
2015,08,25,16,01,23.30
2015,08,25,16,02,23.30
2015,08,25,16,03,23.30
2015,08,25,16,04,23.30
2015,08,25,16,05,23.30
2015,08,25,16,06,23.30
2015,08,25,16,07,23.20
2015,08,25,16,08,23.20
2015,08,25,16,09,23.00
2015,08,25,16,10,22.80
2015,08,25,16,11,22.60
2015,08,25,16,12,22.50
2015,08,25,16,13,22.40
2015,08,25,16,14,22.50
2015,08,25,16,15,22.50
2015,08,25,16,16,22.40
2015,08,25,16,17,22.30
2015,08,25,16,18,22.30
2015,08,25,16,19,22.10
2015,08,25,16,20,22.00
2015,08,25,16,21,22.10
2015,08,25,16,22,22.20
2015,08,25,16,23,22.20
2015,08,25,16,24,22.20
2015,08,25,16,25,22.10
2015,08,25,16,26,22.10
2015,08,25,16,27,22.10
2015,08,25,16,28,22.10
2015,08,25,16,29,22.10
2015,08,25,16,30,22.20
2015,08,25,16,31,22.40
2015,08,25,16,32,22.60
2015,08,25,16,33,22.70
2015,08,25,16,34,22.80
2015,08,25,16,35,22.90
2015,08,25,16,36,22.90
2015,08,25,16,37,22.90
2015,08,25,16,38,22.80
2015,08,25,16,39,22.80
2015,08,25,16,40,22.60
2015,08,25,16,41,22.40
2015,08,25,16,42,22.30
2015,08,25,16,43,22.30
2015,08,25,16,44,22.50
2015,08,25,16,45,22.60
2015,08,25,16,46,22.70
2015,08,25,16,47,22.60
2015,08,25,16,48,22.40
2015,08,25,16,49,22.40
2015,08,25,16,50,22.40
2015,08,25,16,51,22.40
2015,08,25,16,52,22.60
2015,08,25,16,53,22.60
2015,08,25,16,54,22.60
2015,08,25,16,55,22.40
2015,08,25,16,56,22.30
2015,08,25,16,57,22.20
2015,08,25,16,58,22.20
2015,08,25,16,59,22.20
2015,08,25,17,00,22.20
2015,08,25,17,01,22.10
2015,08,25,17,02,22.10
2015,08,25,17,03,22.00
2015,08,25,17,04,22.00
2015,08,25,17,05,22.10
2015,08,25,17,06,22.20
2015,08,25,17,07,22.10
2015,08,25,17,08,22.10
2015,08,25,17,09,22.10
2015,08,25,17,10,22.00
2015,08,25,17,11,22.00
2015,08,25,17,12,22.00
2015,08,25,17,13,22.10
2015,08,25,17,14,22.10
2015,08,25,17,15,22.10
2015,08,25,17,16,22.20
2015,08,25,17,17,22.30
2015,08,25,17,18,22.40
2015,08,25,17,19,22.50